DateTimeUTC,F1_A11,F1_S11,BsB_S11,BsG_S11,BsR_S11,BbsB_S11,BbsG_S11,BbsR_S11,BaB_A11,BaG_A11,BaR_A11,T_S11,U_S11,P_S11,T1_A11
2020-06-18T00:00:00Z,00000380,20000600,,,,,,,,,,25.5,02.4,0671.6,31.1
2020-06-18T00:01:00Z,00000380,20000600,,,,,,,,,,25.5,02.4,0671.6,31.1
2020-06-18T00:02:00Z,00000380,20000600,,,,,,,,,,25.5,02.4,0671.6,31.1
2020-06-18T00:03:00Z,00000380,60010600,,,,,,,,,,25.5,02.4,0671.6,31.1
2020-06-18T00:04:00Z,00000380,40000600,0001.62,0000.75,0000.72,0000.03,0000.49,0000.20,0000.03,0000.22,0000.09,25.3,02.6,0672.5,31.1
2020-06-18T00:05:00Z,00000380,00000600,0000.84,0000.62,0000.23,0000.62,-000.23,0000.33,-000.09,-000.09,-000.08,25.3,02.6,0672.6,31.1
2020-06-18T00:06:00Z,00000380,00000600,0001.64,0000.94,0000.18,0000.18,0000.13,0000.03,0000.31,0000.10,0000.18,25.3,02.6,0672.6,31.1
2020-06-18T00:07:00Z,00000380,00000600,-000.20,0000.58,0000.31,0000.96,0000.32,0000.29,0000.05,-000.06,0000.08,25.2,02.6,0672.6,31.1
2020-06-18T00:08:00Z,00000380,00000600,0001.12,0000.80,0000.73,-000.27,-000.13,-000.00,-000.06,0000.21,-000.03,25.2,02.6,0672.6,31.1
2020-06-18T00:09:00Z,00000380,00000600,0001.29,0000.31,0000.51,0000.39,0000.08,0000.06,-000.04,-000.01,-000.04,25.2,02.6,0672.6,31.1
2020-06-18T00:10:00Z,00000380,00000600,0001.55,0000.44,-000.01,0000.54,0000.23,-000.01,0000.11,-000.01,-000.06,25.2,02.6,0672.6,31.1
2020-06-18T00:11:00Z,00000380,00000600,0001.11,0000.23,0000.36,0000.37,0000.08,0000.31,0000.03,0000.04,0000.10,25.2,02.7,0672.6,31.1
2020-06-18T00:12:00Z,00000380,00000600,0001.57,0000.29,0000.51,0000.29,-000.17,0000.38,-000.01,-000.03,-000.04,25.2,02.6,0672.6,31.1
2020-06-18T00:13:00Z,00000380,00000600,0001.08,0000.79,0000.48,0000.33,0000.28,0000.29,-000.17,-000.07,-000.03,25.2,02.6,0672.6,31.1
2020-06-18T00:14:00Z,00000380,00000600,0001.30,0001.03,-000.09,0000.34,0000.18,0000.40,0000.22,0000.11,0000.27,25.2,02.7,0672.6,31.1
2020-06-18T00:15:00Z,00000380,00000600,0001.29,0000.39,0000.71,0000.82,0000.05,-000.09,0000.13,0000.02,-000.04,25.2,02.7,0672.6,31.1
2020-06-18T00:16:00Z,00000380,00000600,0001.06,0000.50,0000.54,0000.85,0000.30,-000.17,-000.03,0000.11,0000.00,25.2,02.7,0672.6,31.1
2020-06-18T00:17:00Z,00000380,00000600,0000.17,0001.07,0000.84,-000.69,-000.13,0000.27,0000.01,0000.03,0000.02,25.2,02.7,0672.6,31.1
2020-06-18T00:18:00Z,00000380,00000600,0001.03,0000.86,0000.53,0000.12,0000.22,0000.19,0000.11,0000.06,-000.01,25.2,02.7,0672.6,31.1
2020-06-18T00:19:00Z,00000380,00000600,0001.33,0000.75,0000.33,0001.15,0000.02,0000.27,0000.04,-000.08,0000.02,25.2,02.7,0672.6,31.1
2020-06-18T00:20:00Z,00000380,00000600,0001.26,0000.80,0000.30,0000.45,-000.23,-000.07,0000.17,0000.18,0000.17,25.2,02.7,0672.7,31.1
2020-06-18T00:21:00Z,00000380,00000600,0001.07,-000.25,0000.76,-000.27,-000.00,0000.36,0000.09,0000.04,0000.10,25.2,02.8,0672.7,31.1
2020-06-18T00:22:00Z,00000380,00000600,0001.66,0000.72,0000.36,0000.04,-000.01,0000.70,0000.08,0000.09,-000.06,25.1,02.8,0672.6,31.1
2020-06-18T00:23:00Z,00000380,00000600,0000.54,0000.97,0000.76,0001.13,0000.35,0000.08,-000.02,0000.18,0000.05,25.1,02.9,0672.6,31.1
2020-06-18T00:24:00Z,00000380,00000600,0000.68,0000.76,0000.03,0000.38,0000.21,0000.37,-000.10,-000.25,0000.08,25.2,02.8,0672.6,31.1
2020-06-18T00:25:00Z,00000380,00000600,-000.58,0000.22,0000.46,0000.01,-000.05,0000.22,-000.01,0000.12,-000.13,25.1,02.8,0672.6,31.1
2020-06-18T00:26:00Z,00000380,00000600,0001.00,0000.88,0000.18,-000.18,0000.38,0000.18,-000.11,-000.04,0000.01,25.1,02.7,0672.6,31.1
2020-06-18T00:27:00Z,00000380,00000600,0000.49,0000.20,-000.12,-000.02,-000.02,-000.08,-000.04,-000.03,-000.03,25.1,02.7,0672.6,31.1
2020-06-18T00:28:00Z,00000380,00000600,0001.23,0001.01,0000.05,0000.36,-000.16,0000.11,0000.13,-000.09,0000.18,25.1,02.7,0672.7,31.1
2020-06-18T00:29:00Z,00000380,00000600,0001.60,0000.41,0000.22,-000.15,0000.01,0000.02,0000.03,0000.21,0000.07,25.1,02.7,0672.7,31.1
2020-06-18T00:30:00Z,00000380,00000600,0001.33,0000.74,0000.47,-000.29,-000.00,0000.39,-000.11,-000.16,-000.11,25.1,02.8,0672.6,31.1
2020-06-18T00:31:00Z,00000380,00000600,0001.01,0000.63,0000.18,0000.17,-000.52,0000.02,0000.06,-000.06,-000.05,25.1,02.7,0672.6,31.1
2020-06-18T00:32:00Z,00000380,00000600,0001.58,0000.68,0000.15,0000.32,-000.08,0000.42,-000.01,0000.14,-000.02,25.1,02.6,0672.7,31.1
2020-06-18T00:33:00Z,00000380,00000600,0000.45,0000.97,0000.52,0000.55,0000.21,0000.33,0000.20,0000.08,0000.08,25.1,02.6,0672.6,31.1
2020-06-18T00:34:00Z,00000380,00000600,0000.73,0000.46,-000.04,0000.57,-000.08,0000.37,-000.08,-000.02,0000.11,25.1,02.7,0672.7,31.1
2020-06-18T00:35:00Z,00000380,00000600,0000.31,0001.03,0000.62,0000.73,-000.12,0000.05,0000.05,0000.21,0000.00,25.1,02.8,0672.7,31.1
2020-06-18T00:36:00Z,00000380,00000600,0002.68,0001.32,0000.65,0001.05,-000.05,0000.17,0000.11,-000.04,0000.04,25.1,02.7,0672.7,31.1
2020-06-18T00:37:00Z,00000380,00000600,0001.45,0000.62,0000.35,0000.76,0000.22,0000.24,0000.02,0000.20,0000.02,25.1,02.8,0672.7,31.1
2020-06-18T00:38:00Z,00000380,00000600,0001.31,0001.03,0000.44,0000.02,-000.20,0000.33,0000.13,-000.11,0000.03,25.1,02.7,0672.7,31.1
2020-06-18T00:39:00Z,00000380,00000600,0001.46,0000.86,0000.88,0000.33,-000.13,0000.42,-000.13,-000.02,0000.04,25.1,02.7,0672.7,31.1
2020-06-18T00:40:00Z,00000380,00000600,0001.00,0000.52,0000.71,0000.59,0000.09,0000.39,0000.19,0000.00,0000.04,25.1,02.8,0672.7,31.1
2020-06-18T00:41:00Z,00000380,00000600,0000.97,0001.01,0000.69,-000.33,-000.05,0000.13,-000.21,0000.07,-000.02,25.0,02.8,0672.7,31.1
2020-06-18T00:42:00Z,00000380,00000600,0001.27,0000.31,0000.21,0000.50,0000.16,-000.03,0000.14,0000.17,0000.08,25.1,02.8,0672.7,31.1
2020-06-18T00:43:00Z,00000380,00000600,0001.70,0000.60,0000.88,-000.37,-000.06,0000.68,0000.01,-000.12,0000.14,25.1,02.9,0672.7,31.1
2020-06-18T00:44:00Z,00000380,00000600,0002.13,0000.49,0000.61,0000.69,0000.06,0000.02,0000.14,0000.17,-000.02,25.1,02.8,0672.7,31.1
2020-06-18T00:45:00Z,00000380,00000600,0000.18,0000.84,0000.50,0000.67,0000.18,0000.39,-000.12,-000.10,-000.09,25.1,02.8,0672.7,31.1
2020-06-18T00:46:00Z,00000380,00000600,0001.59,0000.82,-000.10,0000.18,0000.18,0000.02,0000.03,0000.05,-000.12,25.0,02.8,0672.7,31.1
2020-06-18T00:47:00Z,00000380,00000600,0000.87,0000.52,0000.14,0000.75,-000.19,-000.24,-000.07,-000.14,0000.17,25.1,02.7,0672.7,31.1
2020-06-18T00:48:00Z,00000380,00000600,0000.95,0001.00,0000.11,0000.49,0000.04,0000.24,-000.02,0000.15,-000.05,25.1,02.7,0672.7,31.1
2020-06-18T00:49:00Z,00000380,00000600,0000.28,0000.37,0000.62,-000.34,-000.01,0000.19,0000.17,0000.08,0000.11,25.0,02.8,0672.7,31.1
2020-06-18T00:50:00Z,00000380,00000600,0001.63,0000.71,0000.53,0000.23,0000.48,-000.05,0000.04,-000.08,-000.10,25.0,02.8,0672.7,31.1
2020-06-18T00:51:00Z,00000380,00000600,0000.98,0000.69,0000.23,-000.34,-000.03,0000.29,0000.02,0000.08,0000.07,25.0,02.8,0672.7,31.1
2020-06-18T00:52:00Z,00000380,00000600,0001.13,0000.32,0000.24,0000.17,-000.42,0000.23,-000.09,-000.02,0000.15,25.0,02.8,0672.7,31.1
2020-06-18T00:53:00Z,00000380,00000600,0001.29,0000.25,0000.51,0000.42,-000.28,0000.21,0000.22,0000.08,0000.01,25.0,02.8,0672.8,31.1
2020-06-18T00:54:00Z,00000380,00000600,0000.52,0000.82,0000.11,0000.52,0000.01,0000.26,0000.12,0000.06,0000.11,25.0,02.8,0672.7,31.1
2020-06-18T00:55:00Z,00000380,00000600,0001.04,0000.94,0000.37,0000.95,-000.13,0000.40,0000.14,0000.13,-000.03,25.0,02.9,0672.7,31.1
2020-06-18T00:56:00Z,00000380,00000600,0001.41,0000.41,0000.31,0000.45,-000.04,0000.05,-000.19,-000.03,0000.01,25.0,02.9,0672.8,31.1
2020-06-18T00:57:00Z,00000380,40000600,,,,,,,,,,25.1,02.8,0672.8,31.1
2020-06-18T00:58:00Z,00000380,60000600,,,,,,,,,,25.1,02.8,0671.7,31.1
2020-06-18T00:59:00Z,00000380,20000600,,,,,,,,,,25.2,02.7,0671.7,31.1
2020-06-18T01:00:00Z,00000380,20000600,,,,,,,,,,25.3,02.6,0671.7,31.1
2020-06-18T01:01:00Z,00000380,20000600,,,,,,,,,,25.3,02.6,0671.7,31.1
2020-06-18T01:02:00Z,00000380,20000600,,,,,,,,,,25.3,02.6,0671.7,31.1
2020-06-18T01:03:00Z,00000380,60000600,,,,,,,,,,25.3,02.6,0671.7,31.1
2020-06-18T01:04:00Z,00000380,40000600,0000.99,0000.19,0000.01,0000.00,0000.02,-000.14,0000.02,0000.08,0000.28,25.1,02.8,0672.7,31.1
2020-06-18T01:05:00Z,00000380,00000600,0000.86,0000.37,-000.02,0000.23,-000.01,-000.03,0000.22,-000.02,-000.11,25.0,02.9,0672.7,31.1
2020-06-18T01:06:00Z,00000380,00000600,0001.96,0000.19,0000.09,0000.65,0000.42,0000.01,-000.03,0000.00,0000.18,25.0,02.9,0672.7,31.0
2020-06-18T01:07:00Z,00000380,00000600,0000.60,0000.22,0000.09,0000.67,0000.24,0000.19,0000.12,0000.18,0000.06,25.0,02.9,0672.8,31.0
2020-06-18T01:08:00Z,00000380,00000600,0001.77,0000.38,0000.22,0000.48,0000.38,0000.16,-000.10,0000.04,0000.02,25.0,02.9,0672.7,31.0
2020-06-18T01:09:00Z,00000380,00000600,0000.74,0000.20,-000.10,0000.63,0000.17,-000.18,-000.02,-000.10,0000.06,25.0,02.9,0672.8,31.1
2020-06-18T01:10:00Z,00000380,00000600,0001.09,0000.42,0000.23,-000.29,0000.08,-000.16,0000.18,0000.14,-000.02,25.0,03.0,0672.8,31.0
2020-06-18T01:11:00Z,00000380,00000600,-000.44,0000.70,0000.06,-000.13,0000.07,-000.10,-000.04,0000.01,0000.13,25.0,03.0,0672.8,31.0
2020-06-18T01:12:00Z,00000380,00000600,0001.43,0000.06,0000.31,0000.40,0000.31,0000.29,-000.09,0000.08,-000.13,25.0,02.9,0672.8,31.1
2020-06-18T01:13:00Z,00000380,00000600,0000.37,0000.67,0000.27,-000.09,0000.27,-000.25,0000.06,-000.06,0000.01,25.0,03.0,0672.8,31.1
2020-06-18T01:14:00Z,00000380,00000600,0000.93,0000.63,0000.17,0000.20,0000.17,0000.06,-000.01,0000.11,0000.06,25.0,03.0,0672.8,31.1
2020-06-18T01:15:00Z,00000380,00000600,0000.85,0000.17,-000.04,0000.66,-000.17,0000.13,0000.18,-000.03,0000.08,25.0,03.0,0672.8,31.1
2020-06-18T01:16:00Z,00000380,00000600,0000.51,0000.29,0000.68,0000.40,-000.37,0000.43,-000.10,0000.02,0000.01,25.0,03.0,0672.8,31.1
2020-06-18T01:17:00Z,00000380,00000600,0001.32,0001.25,0000.29,-000.12,0000.15,-000.16,-000.11,-000.10,-000.22,25.0,02.9,0672.8,31.1
2020-06-18T01:18:00Z,00000380,00000600,0000.93,0000.45,0000.49,0001.34,0000.48,0000.34,0000.09,0000.07,0000.29,24.9,02.9,0672.8,31.1
2020-06-18T01:19:00Z,00000380,00000600,0001.71,0000.84,-000.41,0000.32,0000.44,-000.29,0000.09,-000.14,-000.12,24.9,03.0,0672.8,31.1
2020-06-18T01:20:00Z,00000380,00000600,0000.96,0000.31,-000.26,0000.73,-000.44,-000.02,-000.14,0000.02,-000.05,24.9,02.9,0672.8,31.1
2020-06-18T01:21:00Z,00000380,00000600,0001.04,0000.06,0000.32,0001.07,0000.44,-000.03,0000.07,0000.02,0000.14,24.9,02.9,0672.8,31.1
2020-06-18T01:22:00Z,00000380,00000600,-000.09,-000.02,0000.31,0000.33,0000.23,0000.20,-000.02,0000.07,-000.08,24.9,02.9,0672.8,31.1
2020-06-18T01:23:00Z,00000380,00000600,0001.25,0000.78,-000.20,0000.11,0000.43,-000.08,-000.03,-000.05,0000.00,24.9,02.9,0672.8,31.1
2020-06-18T01:24:00Z,00000380,00000600,0002.26,0000.87,0000.05,0000.02,0000.15,-000.29,0000.10,0000.06,-000.02,24.9,02.9,0672.8,31.1
2020-06-18T01:25:00Z,00000380,00000600,0001.06,0000.28,0000.29,0000.81,-000.17,0000.19,0000.01,0000.05,0000.22,24.9,02.9,0672.8,31.1
2020-06-18T01:26:00Z,00000380,00000600,0000.30,0000.08,-000.40,0000.30,0000.31,-000.05,0000.13,0000.13,0000.05,24.9,03.0,0672.9,31.1
2020-06-18T01:27:00Z,00000380,00000600,0000.66,0000.80,-000.14,0000.43,0000.31,-000.11,0000.01,0000.02,0000.06,24.9,02.9,0672.9,31.0
2020-06-18T01:28:00Z,00000380,00000600,0001.12,0000.20,-000.14,0000.55,0000.33,0000.22,0000.06,0000.09,-000.03,24.9,02.9,0672.9,31.1
2020-06-18T01:29:00Z,00000380,00000600,0000.47,0000.26,0000.10,-000.37,0000.01,0000.34,-000.21,-000.22,0000.00,24.9,02.9,0672.8,31.1
2020-06-18T01:30:00Z,00000380,00000600,0000.71,0000.05,-000.20,-000.07,-000.16,-000.19,-000.06,0000.13,-000.18,24.9,02.9,0672.8,31.0
2020-06-18T01:31:00Z,00000380,00000600,0001.02,0000.35,0000.20,0000.87,-000.10,-000.11,0000.28,-000.10,0000.25,24.9,02.8,0672.8,31.1
2020-06-18T01:32:00Z,00000380,00000600,0000.94,0000.46,0000.03,-000.21,0000.05,0000.39,-000.22,0000.02,-000.04,24.9,02.9,0672.8,31.1
2020-06-18T01:33:00Z,00000380,00000600,0000.27,0000.41,0000.07,0000.43,0000.16,0000.33,-000.01,0000.03,-000.12,24.9,02.9,0672.8,31.1
2020-06-18T01:34:00Z,00000380,00000600,0001.78,0000.65,0000.50,0000.82,-000.05,0000.12,0000.08,-000.10,-000.08,24.9,02.8,0672.8,31.0
2020-06-18T01:35:00Z,00000380,00000600,0001.44,0000.38,0000.23,0000.26,-000.02,0000.19,0000.05,0000.19,0000.24,24.9,02.8,0672.8,31.1
2020-06-18T01:36:00Z,00000380,00000600,0000.55,0000.34,-000.09,0000.68,0000.11,0000.12,0000.08,0000.01,0000.13,24.9,02.9,0672.8,31.1
2020-06-18T01:37:00Z,00000380,00000600,0000.70,0000.21,-000.15,0000.54,0000.31,0000.10,0000.03,0000.04,-000.06,24.9,02.9,0672.8,31.1
2020-06-18T01:38:00Z,00000380,00000600,0000.67,0000.18,0000.23,-000.10,0000.33,0000.67,0000.09,0000.18,0000.11,24.9,02.9,0672.8,31.1
2020-06-18T01:39:00Z,00000380,00000600,-000.78,0000.18,0000.35,0000.11,0000.32,-000.04,0000.18,0000.14,0000.13,24.9,02.9,0672.8,31.1
2020-06-18T01:40:00Z,00000380,00000600,0000.50,0000.20,-000.00,-000.32,0000.15,0000.04,-000.03,-000.01,-000.07,24.9,02.9,0672.8,31.0
2020-06-18T01:41:00Z,00000380,00000600,0000.83,0000.67,-000.09,0000.15,-000.17,-000.21,-000.01,0000.12,0000.23,24.8,03.0,0672.9,31.0
2020-06-18T01:42:00Z,00000380,00000600,0000.66,0000.12,0000.19,0000.11,0000.32,0000.20,0000.14,-000.05,-000.06,24.8,03.0,0672.9,31.1
2020-06-18T01:43:00Z,00000380,00000600,0000.89,0000.24,0000.00,0000.31,0000.42,0000.07,-000.03,-000.06,-000.03,24.8,02.9,0672.9,31.1
2020-06-18T01:44:00Z,00000380,00000600,0002.08,0000.46,0000.25,0000.85,-000.07,-000.08,-000.03,0000.08,-000.00,24.8,03.0,0672.9,31.0
2020-06-18T01:45:00Z,00000380,00000600,0001.37,0000.58,-000.12,0000.54,0000.08,-000.19,0000.17,0000.11,0000.21,24.8,02.9,0672.9,31.0
2020-06-18T01:46:00Z,00000380,00000600,0000.49,-000.07,0000.19,0000.01,0000.18,-000.74,-000.17,-000.08,-000.25,24.8,03.0,0672.8,31.0
2020-06-18T01:47:00Z,00000380,00000600,0000.79,0000.35,-000.05,0000.10,0000.22,-000.28,-000.31,-000.13,-000.04,24.8,02.8,0672.9,31.0
2020-06-18T01:48:00Z,00000380,00000600,0000.64,0000.32,-000.24,0000.34,-000.16,-000.22,-000.06,-000.19,-000.14,24.8,02.8,0672.8,31.1
2020-06-18T01:49:00Z,00000380,00000600,0002.09,0000.30,0000.02,0000.39,0000.06,0000.03,0000.13,0000.20,0000.14,24.8,02.8,0672.9,31.0
2020-06-18T01:50:00Z,00000380,00000600,0000.75,0000.47,0000.17,0000.98,0000.13,0000.15,0000.10,-000.13,-000.01,24.8,02.8,0672.9,31.1
2020-06-18T01:51:00Z,00000380,00000600,0000.89,0000.50,0000.11,0000.42,-000.23,0000.03,-000.16,0000.16,-000.05,24.8,02.8,0672.8,31.0
2020-06-18T01:52:00Z,00000380,00000600,0000.23,-000.00,-000.10,0000.87,0000.21,-000.04,0000.24,0000.01,0000.23,24.8,02.8,0672.8,31.0
2020-06-18T01:53:00Z,00000380,00000600,0000.48,0000.08,-000.15,0000.65,0000.23,-000.03,-000.10,0000.06,0000.05,24.8,02.8,0672.8,31.0
2020-06-18T01:54:00Z,00000380,00000600,0000.50,0001.34,-000.13,0000.13,0000.09,0000.07,0000.21,0000.04,0000.08,24.8,02.9,0672.8,31.0
2020-06-18T01:55:00Z,00000380,00000600,0001.03,0000.02,0000.45,0000.08,-000.14,0000.17,-000.03,-000.07,-000.12,24.8,02.9,0672.8,31.0
2020-06-18T01:56:00Z,00000380,00000600,0001.34,0000.45,0000.39,0000.66,0000.15,0000.37,0000.17,0000.19,0000.10,24.8,02.8,0672.8,31.0
2020-06-18T01:57:00Z,00000380,40000600,,,,,,,,,,24.8,02.6,0672.8,31.0
2020-06-18T01:58:00Z,00000380,60000600,,,,,,,,,,24.9,02.8,0671.8,31.0
2020-06-18T01:59:00Z,00000380,20000600,,,,,,,,,,25.0,02.8,0671.7,31.0
2020-06-18T02:00:00Z,00000380,20000600,,,,,,,,,,25.0,02.8,0671.7,31.0
2020-06-18T02:01:00Z,00000380,20000600,,,,,,,,,,25.0,02.8,0671.7,31.0
2020-06-18T02:02:00Z,00000380,20000600,,,,,,,,,,25.0,02.7,0671.7,31.1
2020-06-18T02:03:00Z,00000380,60000600,,,,,,,,,,25.0,02.6,0671.7,31.0
2020-06-18T02:04:00Z,00000380,40000600,0001.04,0000.96,0000.07,-001.47,-000.02,0000.03,0000.07,0000.01,-000.05,24.8,02.8,0672.7,31.1
2020-06-18T02:05:00Z,00000380,00000600,0001.87,0000.31,-000.06,-000.20,0000.16,-000.34,-000.05,-000.03,0000.11,24.8,02.8,0672.9,31.0
2020-06-18T02:06:00Z,00000380,00000600,0000.08,0000.60,-000.13,-000.24,0000.29,-000.11,0000.24,0000.28,0000.05,24.8,02.9,0672.9,31.0
2020-06-18T02:07:00Z,00000380,00000600,0001.69,-000.00,-000.07,0000.55,0000.25,-000.31,0000.02,0000.02,0000.06,24.8,02.8,0672.9,31.0
2020-06-18T02:08:00Z,00000380,00000600,0000.48,0000.49,0000.55,-000.21,0000.24,0000.08,-000.26,-000.07,-000.07,24.8,03.0,0672.9,31.0
2020-06-18T02:09:00Z,00000380,00000600,0000.43,0000.61,0000.11,-000.60,0000.11,-000.08,0000.02,-000.15,-000.23,24.7,02.9,0672.9,31.0
2020-06-18T02:10:00Z,00000380,00000600,0001.51,-000.04,-000.10,0000.57,-000.12,-000.02,0000.05,-000.10,0000.27,24.8,02.9,0672.9,31.0
2020-06-18T02:11:00Z,00000380,00000600,0001.96,0000.51,0000.23,-000.55,0000.23,0000.20,0000.05,0000.36,-000.05,24.7,02.9,0672.9,31.0
2020-06-18T02:12:00Z,00000380,00000600,-000.06,0000.20,0000.07,-000.26,-000.11,0000.21,0000.13,-000.11,0000.12,24.7,02.9,0672.9,31.0
2020-06-18T02:13:00Z,00000380,00000600,0000.51,0000.86,-000.11,0000.57,0000.19,-000.31,0000.00,-000.09,-000.09,24.8,02.9,0672.9,31.0
2020-06-18T02:14:00Z,00000380,00000600,0002.01,0000.15,-000.02,0000.79,0000.18,0000.20,-000.13,0000.11,0000.19,24.7,02.9,0672.9,31.0
2020-06-18T02:15:00Z,00000380,00000600,0001.59,0000.47,0000.62,0000.08,-000.12,0000.09,0000.28,0000.08,-000.00,24.7,02.9,0672.9,31.0
2020-06-18T02:16:00Z,00000380,00000600,0001.06,0000.22,0000.21,0000.27,0000.48,-000.06,-000.16,0000.07,0000.10,24.7,02.9,0672.9,31.0
2020-06-18T02:17:00Z,00000380,00000600,0000.66,0000.83,0000.55,0000.46,0000.05,-000.01,0000.08,-000.04,-000.08,24.7,02.9,0672.9,31.0
2020-06-18T02:18:00Z,00000380,00000600,0001.23,0000.52,-000.09,0000.16,0000.04,-000.31,0000.04,0000.07,0000.01,24.7,02.9,0672.9,31.0
2020-06-18T02:19:00Z,00000380,00000600,-000.28,0000.60,0000.29,0000.21,0000.25,-000.17,0000.12,0000.08,0000.03,24.7,03.0,0672.9,31.0
2020-06-18T02:20:00Z,00000380,00000600,0001.80,0000.51,0000.02,0000.36,0000.34,-000.05,-000.08,-000.02,0000.02,24.7,03.0,0672.9,31.0
2020-06-18T02:21:00Z,00000380,00000600,0000.94,0000.42,0000.49,0000.16,-000.12,-000.02,0000.08,0000.12,0000.06,24.7,02.9,0672.9,31.0
2020-06-18T02:22:00Z,00000380,00000600,0000.88,0000.77,0000.14,0000.16,-000.01,0000.15,-000.10,-000.05,-000.08,24.7,03.0,0673.0,31.1
2020-06-18T02:23:00Z,00000380,00000600,-000.31,0000.17,0000.41,-000.02,-000.06,-000.22,0000.09,0000.06,0000.15,24.7,03.0,0672.9,31.1
2020-06-18T02:24:00Z,00000380,00000600,0001.16,0001.20,-000.04,0001.08,0000.05,-000.23,0000.15,0000.11,0000.14,24.7,03.0,0672.9,31.1
2020-06-18T02:25:00Z,00000380,00000600,0000.41,-000.03,0000.18,0000.30,0000.25,-000.34,0000.00,-000.17,-000.01,24.7,03.0,0673.0,31.1
2020-06-18T02:26:00Z,00000380,00000600,0000.97,0000.44,0000.17,0000.20,0000.24,-000.02,0000.01,0000.13,-000.03,24.7,03.0,0673.0,31.1
2020-06-18T02:27:00Z,00000380,00000600,0000.96,0000.21,0000.16,0000.30,0000.54,0000.09,0000.03,0000.09,0000.12,24.7,03.0,0673.0,31.0
2020-06-18T02:28:00Z,00000380,00000600,0000.13,0000.60,0000.24,0000.63,0000.40,0000.01,0000.06,0000.05,-000.03,24.7,03.0,0673.0,31.0
2020-06-18T02:29:00Z,00000380,00000600,0002.05,-000.09,0000.16,0000.40,0000.25,0000.37,0000.19,-000.06,0000.07,24.6,03.0,0673.0,31.0
2020-06-18T02:30:00Z,00000380,00000600,-000.49,0000.67,0000.22,-000.33,-000.01,0000.16,-000.15,0000.14,0000.06,24.6,03.0,0673.0,31.0
2020-06-18T02:31:00Z,00000380,00000600,0000.63,0000.46,-000.12,-000.03,-000.02,-000.32,0000.10,-000.12,-000.03,24.7,02.9,0672.9,31.0
2020-06-18T02:32:00Z,00000380,00000600,0001.17,0000.26,0000.24,-000.15,-000.20,0000.29,-000.06,0000.12,0000.00,24.6,03.0,0672.9,31.0
2020-06-18T02:33:00Z,00000380,00000600,0001.26,0000.18,-000.20,0000.75,0000.08,-000.03,0000.04,-000.03,-000.05,24.6,02.9,0672.9,31.0
2020-06-18T02:34:00Z,00000380,00000600,0000.21,0000.33,0000.05,0000.28,-000.25,0000.02,0000.04,0000.14,0000.09,24.6,03.0,0672.9,31.0
2020-06-18T02:35:00Z,00000380,00000600,0000.98,0000.24,0000.05,0000.90,0000.03,-000.49,-000.12,0000.04,0000.14,24.6,03.0,0673.0,31.0
2020-06-18T02:36:00Z,00000380,00000600,0000.78,0000.43,-000.04,0000.11,0000.22,0000.44,0000.11,-000.19,-000.22,24.6,02.9,0673.0,31.0
2020-06-18T02:37:00Z,00000380,00000600,0002.01,0000.12,0000.12,0000.05,0000.27,-000.41,0000.13,0000.17,0000.19,24.6,03.0,0672.9,31.0
2020-06-18T02:38:00Z,00000380,00000600,0000.55,0000.27,-000.02,-000.32,-000.21,-000.18,-000.10,0000.12,0000.05,24.6,03.0,0673.0,31.0
2020-06-18T02:39:00Z,00000380,00000600,0001.09,0000.33,0000.20,0000.88,0000.20,0000.24,-000.04,-000.15,0000.07,24.6,03.0,0673.0,31.0
2020-06-18T02:40:00Z,00000380,00000600,0000.72,0000.12,0000.09,-000.34,0000.08,0000.21,0000.15,-000.03,-000.16,24.6,03.0,0673.0,31.0
2020-06-18T02:41:00Z,00000380,00000600,0000.66,0000.38,0000.16,-000.61,-000.27,0000.07,-000.06,0000.06,0000.19,24.6,03.0,0673.0,31.0
2020-06-18T02:42:00Z,00000380,00000600,0000.82,0000.61,-000.12,0000.14,0000.53,-000.34,-000.03,0000.06,-000.07,24.6,03.0,0672.9,31.0
2020-06-18T02:43:00Z,00000380,00000600,0001.51,0000.21,0000.02,-000.14,0000.15,-000.16,0000.10,0000.05,0000.08,24.6,03.0,0673.0,31.0
2020-06-18T02:44:00Z,00000380,00000600,0000.51,0000.38,0000.08,0000.34,0000.33,0000.05,-000.00,-000.10,-000.00,24.6,02.9,0672.9,31.0
2020-06-18T02:45:00Z,00000380,00000600,0000.66,0000.59,0000.31,0000.05,0000.33,-000.14,-000.02,-000.01,-000.02,24.6,02.9,0673.0,31.0
2020-06-18T02:46:00Z,00000380,00000600,0001.00,-000.16,-000.03,-000.48,0000.23,-000.13,-000.11,0000.18,-000.06,24.6,02.8,0672.9,31.0
2020-06-18T02:47:00Z,00000380,00000600,0000.39,0000.39,0000.09,0000.29,-000.29,-000.25,0000.11,-000.19,0000.13,24.6,02.9,0672.9,31.0
2020-06-18T02:48:00Z,00000380,00000600,0000.40,0000.56,-000.10,0000.14,0000.36,0000.09,-000.04,0000.18,0000.07,24.6,02.8,0673.0,31.0
2020-06-18T02:49:00Z,00000380,00000600,0000.52,0000.45,0000.26,-000.00,0000.24,-000.09,0000.07,-000.04,-000.14,24.6,02.9,0672.9,31.0
2020-06-18T02:50:00Z,00000380,00000600,0000.40,-000.03,-000.26,-000.47,-000.03,-000.05,-000.08,-000.10,0000.04,24.6,02.8,0672.9,31.0
2020-06-18T02:51:00Z,00000380,00000600,0001.66,0000.48,-000.14,0000.73,-000.08,-000.20,-000.21,-000.15,-000.11,24.5,02.7,0672.9,31.0
2020-06-18T02:52:00Z,00000380,00000600,-000.11,0000.37,0000.10,0000.21,-000.08,0000.37,-000.12,-000.13,0000.04,24.5,02.7,0673.0,31.0
2020-06-18T02:53:00Z,00000380,00000600,0001.31,0000.38,0000.10,0000.49,0000.08,0000.34,0000.21,0000.37,0000.11,24.5,02.8,0673.0,31.0
2020-06-18T02:54:00Z,00000380,00000600,0000.16,0000.17,0000.01,0000.06,0000.49,-000.10,-000.25,-000.27,-000.27,24.6,02.7,0673.0,31.0
2020-06-18T02:55:00Z,00000380,00000600,0000.98,0000.48,-000.02,0000.49,0000.07,0000.08,0000.08,-000.03,0000.09,24.5,02.7,0673.0,31.0
2020-06-18T02:56:00Z,00000380,00000600,0000.87,0000.14,0000.20,-000.35,0000.55,-000.08,-000.03,-000.06,0000.11,24.5,02.7,0672.9,31.0
2020-06-18T02:57:00Z,00000380,40000600,,,,,,,,,,24.6,03.0,0672.9,31.0
2020-06-18T02:58:00Z,00000380,60000600,,,,,,,,,,24.7,02.7,0671.9,31.0
2020-06-18T02:59:00Z,00000380,20000600,,,,,,,,,,24.8,02.6,0671.9,31.0
2020-06-18T03:00:00Z,00000380,20000600,,,,,,,,,,24.8,02.6,0671.9,31.0
2020-06-18T03:01:00Z,00000380,20000600,,,,,,,,,,24.8,02.6,0671.9,31.0
2020-06-18T03:02:00Z,00000380,20000600,,,,,,,,,,24.8,02.6,0671.9,31.0
2020-06-18T03:03:00Z,00000380,60000600,,,,,,,,,,24.8,02.6,0671.9,31.0
2020-06-18T03:04:00Z,00000380,40000600,0001.13,0000.63,0000.51,0000.54,0000.71,0000.02,0000.07,0000.10,0000.13,24.6,02.6,0672.9,31.0
2020-06-18T03:05:00Z,00000380,00000600,0001.81,0000.23,0000.25,0000.39,0000.49,-000.08,-000.10,0000.09,0000.13,24.6,02.7,0673.0,31.0
2020-06-18T03:06:00Z,00000380,00000600,0000.70,0000.12,-000.13,0000.36,0000.08,0000.07,0000.17,-000.02,-000.17,24.6,02.7,0673.0,31.0
2020-06-18T03:07:00Z,00000380,00000600,0001.07,0000.48,0000.02,0000.17,0000.23,0000.08,0000.03,0000.07,0000.08,24.5,02.7,0672.9,31.0
2020-06-18T03:08:00Z,00000380,00000600,0001.60,0000.00,0000.17,0000.91,0000.02,0000.01,0000.00,-000.02,0000.05,24.5,02.7,0672.9,31.0
2020-06-18T03:09:00Z,00000380,00000600,0000.50,0000.30,-000.10,-000.78,0000.26,0000.25,-000.04,0000.06,0000.12,24.5,02.8,0672.9,31.0
2020-06-18T03:10:00Z,00000380,00000600,0001.35,0000.87,0000.32,0000.58,0000.17,0000.17,-000.03,0000.12,-000.08,24.5,02.7,0672.9,31.0